OPS 4682 DEB, 59149

Orbit data source: Space-Track

OPS 4682 DEB, 59149 is space debris in LEO originally from a launch on Sat, 03 Apr 1965 UTC launched from the Air Force Western Test Range (AFWTR). Debris objects in space refer to the collection of defunct objects orbiting the Earth. Examples of debris include non-operational satellites, rocket bodies, and fragments generated from explosions, collisions, or faulty payload assembly.

Loading next visibility...
Identifier
59149, 1965-027HR
Orbit
LEO
Country
Flag of USUS
Related business
Manufacturer
Unknown
Mission
Spacecraft
Bus & Motor
Unknown
Mass
Unknown
Launch date (UTC)
1965-04-03 (61 years ago)
Launch vehicle
Unknown
Launch site
Air Force Western Test Range (AFWTR)
Object type
Payload
Rocket body
Debris
Shape & HBR
Unknown
Radar Cross Section
Medium (>0.1 m² and <1 m²)

Expand to show TLE details & history
Last TLE update: 4 days ago

TLE from 4 days ago
0 OPS 4682 DEB
1 59149U 65027HR  26204.19136491 -.00000210  00000-0 -70376-3 0  9997
2 59149  90.2544  18.0537 0039623  45.2629 315.1708 13.01724705510336
Epoch: 2026-07-23T04:35Z
TLE epoch observation values (Epoch: 2026-07-23T04:35:33.928Z)
Latitude
-0.00001°
Longitude
8.22644°
Altitude
1,236.828 km
Speed
7.246 km/s
True Right ascension
01h 12m 12s
True Declination
0° 00' 00"
Sunlit
Object was in daylight at epoch
Visualization orbit readout
Latitude
Unknown
Longitude
Unknown
Altitude
Unknown
Speed
Unknown
Apparent Right ascension
Unknown
Apparent Declination
Unknown
Sunlit
N/A
Visualization observer readout
Local Sidereal Time
18:06:52
Azimuth
Unknown
Elevation
Unknown
Doppler factor
Unknown
Orbital elements
Apogee altitude
1,282.696 km
Perigee altitude
1,222.226 km
Semi-major axis
7,630.598 km
Eccentricity
0.00396
Inclination
90.2544°
RAAN
18.0537°
Arg. of periapsis
45.2629°
True anomaly
314.84957°
Mean anomaly
315.1708°
Eccentric anomaly
315.0103°
Mean motion
3.25616 °/min
Orbital period
110.56 mins
BSTAR
-0.00070376
Loading maneuver chart data...
Computing Atmospheric mass density...
Loading historical data...
Loading historical data...
Loading historical data...
Loading historical data...
Loading historical data...
Loading historical data...
Loading historical data...

Documentation

Showing up to 5 results
|